Hourly Data Report for July 17, 2021

TORONTO CITY CENTRE
ONTARIO
Current Station Operator: NAVCAN

43°37'39.000" N
79°23'46.000" W
76.80 m
6158359
71265
YTZ

Download Data

Hourly Data (July 2021)
Hourly Data Report for July 17, 2021
TIME
LST
Temp Definition
°C
Dew Point Definition
°C
Rel Hum Definition
%
Precip. Amount Definition
mm

Wind Dir Definition
10's deg

Wind Spd Definition
km/h
Visibility Definition
km
Stn Press Definition
kPa
Hmdx Definition


Wind Chill Definition


Weather Definition


00:00 21.2 15.4 69 0.0 6 18 16.1 100.80 25   LegendNANA
01:00 21.0 17.4 80 0.0 8 13 16.1 100.81 27   LegendNANA
02:00 20.7 17.5 82 0.0 6 17 16.1 100.81 26   LegendNANA
03:00 20.6 17.5 82 0.0 7 15 16.1 100.80 26   LegendNANA
04:00 20.2 18.0 87 0.0 6 15 16.1 100.82 26   Rain
05:00 20.0 18.1 89 0.0 4 11 16.1 100.89 26   Rain
06:00 19.4 18.4 94 0.5 10 11 16.1 100.89     Rain
07:00 19.5 18.5 94 0.2 9 11 16.1 100.90     Rain
08:00 19.3 18.2 93 0.2 10 11 16.1 100.96     Rain
09:00 19.0 18.0 94 0.2 8 21 16.1 100.92     Rain
10:00 19.4 18.4 94 0.8 7 18 16.1 100.94     Rain
11:00 20.0 18.2 89 0.2 5 17 16.1 100.97 26   Rain
12:00 20.1 18.1 88 0.8 2 17 16.1 100.92 26   Rain
13:00 20.3 17.4 83 0.5 4 21 16.1 100.90 26   Rain
14:00 20.6 16.5 77 0.2 5 24 16.1 100.91 26   LegendNANA
15:00 20.1 16.2 78 0.0 8 21 16.1 100.88 25   LegendNANA
16:00 21.1 16.6 75 0.0 6 18 16.1 100.90 26   LegendNANA
17:00 21.4 13.9 62 0.0 3 18 16.1 100.88 25   LegendNANA
18:00 21.5 15.1 66 0.0 5 9 16.1 100.85 26   LegendNANA
19:00 21.3 16.3 73 0.0 9 8 16.1 100.87 26   LegendNANA
20:00 20.9 16.6 76 0.0 8 8 16.1 100.91 26   LegendNANA
21:00 20.7 16.2 75 0.0 5 13 16.1 100.93 25   LegendNANA
22:00 21.3 15.9 71 0.0 31 8 16.1 100.93 26   LegendNANA
23:00 21.5 16.3 72 0.0 32 11 16.1 100.92 26   LegendNANA

Notes on Data Quality.

Legend

  • E = Estimated
  • M = Missing
  • NA = Not Available*
  • [empty] = Indicates an unobserved value
Date modified: